Regional Weather Roundup
Issued by NWS State College, PA

Current Version | Previous Version | Text Only | Print | Product List | Glossary On
Versions: 1 2 3 4 5 6 7 8 9 10 11 12 13 14 15 16 17 18 19 20 21 22 23 24 25 26 27 28 29 30 31 32 33 34 35 36 37 38 39 40 41 42 43 44 45 46 47 48 49 50
000
ASUS41 KCTP 171310
RWRCTP

REGIONAL WEATHER ROUNDUP
NATIONAL WEATHER SERVICE STATE COLLEGE PA
900 AM EDT THU APR 17 2014

Note: "fair" indicates few or no clouds below 12,000 feet with no
significant weather and/or obstructions to visibility.

* = STATION THAT DOES NOT REPORT PRECIPITATION /E.G. RAIN...SNOW...ETC/
    THUNDER OR FOG.

PAZ002>004-007>009-013>016-020>023-029>032-171400-
WESTERN PENNSYLVANIA

CITY           SKY/WX    TMP DP  RH WIND       PRES   REMARKS
ERIE           SUNNY     41  17  38 S24G33    30.42R
MEADVILLE      SUNNY     38  17  42 VRB6      30.43S
FRANKLIN*      SUNNY     36  18  48 SE16      30.47R
NEW CASTLE     FAIR      39  17  41 SE8       30.47R
BEAVER COUNTY  SUNNY     39  19  45 SE8       30.45R
BUTLER*        PTSUNNY   37  18  44 E13G18    30.48R
PITTSBURGH INT CLOUDY    41  18  39 SE12      30.45R
PITTSBURGH     PTSUNNY   42  18  37 SE8       30.46R
INDIANA*       PTSUNNY   37  19  48 SE13G18   30.50R
LATROBE        PTSUNNY   41  19  42 S6        30.49R
WASHINGTON CO* PTSUNNY   39  19  45 E7        30.47R
$$

PAZ004>006-010>012-017>019-024>028-033>037-041-042-045-046-049>053-171400-
CENTRAL PENNSYLVANIA

CITY           SKY/WX    TMP DP  RH WIND       PRES   REMARKS
BRADFORD       MOSUNNY   32  13  45 SE13G22   30.48S
DUBOIS         PTSUNNY   35  17  47 SE16G25   30.48S
CLEARFIELD     PTSUNNY   34  20  56 NE6       30.55R
JOHNSTOWN      MOSUNNY   34  18  52 S17G28    30.48R
ALTOONA        SUNNY     38  19  46 VRB6      30.56S
STATE COLLEGE  SUNNY     39  18  41 SE10      30.59R
WILLIAMSPORT   SUNNY     38  19  46 VRB3      30.64R
SELINSGROVE    SUNNY     39  22  50 SE3       30.65S
FT INDIANTOWN  SUNNY     38  22  52 NE7       30.66S
CAPITAL CITY   SUNNY     40  22  48 E14       30.66R
HARRISBURG     MOSUNNY   42  23  46 SE8       30.66R
YORK           SUNNY     40  25  55 E9        30.65R
$$

PAZ038>040-043-044-047-048-054-055-060>062-067>071-171400-
EASTERN PENNSYLVANIA

CITY           SKY/WX    TMP DP  RH WIND       PRES   REMARKS
SCRANTON       SUNNY     38  16  40 SE8       30.64R
MOUNT POCONO   SUNNY     30  15  53 E13G22    30.60R
ALLENTOWN      SUNNY     39  21  48 E9        30.68R
QUAKERTOWN*    SUNNY     37  23  56 E9        30.68R
READING        SUNNY     41  24  51 SE7       30.67R
LANCASTER      SUNNY     39  24  55 E12       30.65R
COATESVILLE    SUNNY     39  25  56 E15G22    30.66R
POTTSTOWN      SUNNY     40  24  53 E8        30.69R
BLUE BELL      SUNNY     43  28  56 E9G16     30.67R
DOYLESTOWN     SUNNY     39  24  55 VRB5      30.67R
WILLOW GROVE   NOT AVBL
NORTH PHILA    SUNNY     44  27  51 E16       30.70R
PHILADELPHIA   MOSUNNY   44  28  53 E10       30.69R
$$



USA.gov is the U.S. government's official web portal to all federal, state and local government web resources and services.